Simultaneous Nadir Overpasses (SNOs) Predictions

Prediction of SNOs between GOES-15 and NPP Satellite Orbit:

Table of predicted SNOs for the next 14.0 days since TLE Epoch: 5/30/2015
Index Date Time (GOES-15) GOES-15 Lat,Lon NPP Lat,Lon Distance(km) Time Diff (sec)
1 05/31/2015 22:32:23 -0.01,-135.07 -0.21,-135.95 101.07 80
2 06/01/2015 22:16:18 -0.01,-135.04 0.77,-131.42 411.85 80
3 06/03/2015 10:35:25 -0.00,-135.00 0.40,-136.69 193.47 80
4 06/04/2015 10:19:21 0.00,-134.96 -0.64,-132.17 318.95 80
5 06/05/2015 22:38:37 0.01,-134.89 -0.54,-137.48 294.55 80
6 06/06/2015 22:22:32 0.00,-134.85 0.44,-132.94 217.55 80
7 06/08/2015 10:41:39 -0.02,-134.80 0.72,-138.22 388.86 80
8 06/09/2015 10:25:33 -0.01,-134.76 -0.26,-133.68 122.89 80
9 06/10/2015 22:44:50
